Location: Unspecified
(43.7735°N, 0.0000°E)
Time: 09:40:01
(UTC+00:00)

Cosmos 1340 Rocket - Visible Passes

Search period start: 04 April 2026 00:00
Search period end: 14 April 2026 00:00
Orbit: 483 x 515 km, 81.2° (Epoch: 29 March)

Date Brightness Start Highest point End Pass type
(mag) Time Alt. Az. Time Alt. Az. Time Alt. Az.
4 Apr 3.5 19:39:52 20° SE 19:41:22 27° E 19:44:31 10° NE visible
4 Apr 5.2 21:14:23 11° WSW 21:16:54 19° WNW 21:19:37 10° NNW visible
5 Apr 4.0 19:18:28 10° SE 19:21:11 20° E 19:23:54 10° NE visible
5 Apr 4.8 20:53:25 10° SW 20:56:32 26° WNW 20:59:39 10° NNW visible
6 Apr 4.3 18:58:56 10° ESE 19:01:00 15° E 19:03:04 10° NE visible
6 Apr 4.2 20:32:47 10° SW 20:36:11 35° WNW 20:39:36 10° N visible
7 Apr 3.5 20:12:16 10° SSW 20:15:51 49° WNW 20:19:25 10° N visible
8 Apr 2.8 19:51:53 10° SSW 19:55:32 71° WNW 19:59:11 10° N visible
9 Apr 2.5 19:31:33 10° S 19:35:13 81° E 19:38:53 10° NNE visible
10 Apr 2.6 19:11:20 10° S 19:14:55 56° E 19:18:31 10° NNE visible
10 Apr 6.2 20:50:19 10° WNW 20:50:48 10° WNW 20:51:17 10° WNW visible
11 Apr 5.9 20:28:23 10° W 20:30:20 14° WNW 20:32:17 10° NW visible
12 Apr 5.7 20:07:16 10° WSW 20:09:53 18° WNW 20:12:30 10° NNW visible
13 Apr 5.2 19:46:24 10° SW 19:49:27 24° WNW 19:52:31 10° NNW visible
